Weather History for St. Joseph, MO

Change the Weather History Date:

Saturday, September 24, 2011

  Actual Average Record
Temperature  
Mean Temperature 57 °F 63 °F  
Max Temperature 71 °F 76 °F 90 °F (1958)
Min Temperature 43 °F 50 °F 30 °F (1989)
Degree Days  
Heating Degree Days 8 4  
Month to date heating degree days 26 44  
Since 1 July heating degree days 26 49  
Cooling Degree Days 0 2  
Month to date cooling degree days 0 108  
Year to date cooling degree days 458 1185  
Growing Degree Days 7 (Base 50)    
Moisture  
Dew Point 45 °F    
Average Humidity 65    
Maximum Humidity 93    
Minimum Humidity 37    
Precipitation  
Precipitation 0.00 in 0.09 in 2.01 in (1900)
Month to date precipitation 0.00 2.89  
Year to date precipitation 13.83 29.19  
Snow  
Snow 0.00 in - - ()
Month to date snowfall 0.0  
Snow Depth 0.00 in    
Sea Level Pressure  
Sea Level Pressure 29.97 in    
Wind  
Wind Speed 6 mph (East)    
Max Wind Speed 17 mph    
Max Gust Speed 21 mph    
Visibility 10 miles    
Events      
T = Trace of Precipitation, MM = Missing Value Source: NWS Daily Summary

Daily Weather History Graph

Daily Weather History Graph

Search for Another Location

Airport:

Trip Planner

Search our weather history database for the weather conditions in past years. The results will help you decide how hot, cold, wet, or windy it might be!

Date:

Astronomy

Sep. 24, 2011 Rise Set
Actual Time 7:08 AM CDT 7:13 PM CDT
Civil Twilight 6:41 AM CDT 7:40 PM CDT
Nautical Twilight 6:10 AM CDT 8:12 PM CDT
Astronomical Twilight 5:38 AM CDT 8:44 PM CDT
Moon 3:46 AM CDT (9/24) 5:20 PM CDT (9/24)
Length of Visible Light 12h 58m
Length of Day
12h 04m
Waning Crescent, 11% of the Moon is Illuminated
Sep 24
Waning Crescent
Sep 27
New
Oct 3
First Quarter
Oct 11
Full
Oct 19
Last Quarter

Hourly Weather History & Observations

Time (CDT) Temp. Dew Point Humidity Pressure Visibility Wind Dir Wind Speed Gust Speed Precip Events Conditions
12:53 AM 46.9 °F 43.0 °F 86% 30.02 in 10.0 mi Calm Calm - N/A   Clear
1:53 AM 53.1 °F 45.0 °F 74% 30.01 in 10.0 mi East 6.9 mph - N/A   Clear
2:53 AM 50.0 °F 44.1 °F 80% 30.01 in 10.0 mi South 4.6 mph - N/A   Clear
3:53 AM 52.0 °F 44.1 °F 74% 29.99 in 10.0 mi ESE 3.5 mph - N/A   Clear
4:53 AM 48.9 °F 45.0 °F 86% 29.99 in 10.0 mi Calm Calm - N/A   Clear
5:53 AM 51.1 °F 43.0 °F 74% 29.99 in 10.0 mi Calm Calm - N/A   Clear
6:53 AM 44.1 °F 42.1 °F 93% 30.00 in 10.0 mi Calm Calm - N/A   Clear
7:53 AM 46.0 °F 44.1 °F 93% 30.01 in 10.0 mi Calm Calm - N/A   Clear
8:53 AM 52.0 °F 45.0 °F 77% 30.02 in 10.0 mi East 5.8 mph - N/A   Clear
9:53 AM 57.0 °F 46.0 °F 67% 30.01 in 10.0 mi SE 5.8 mph - N/A   Clear
10:53 AM 62.1 °F 48.0 °F 60% 30.00 in 10.0 mi East 6.9 mph - N/A   Clear
11:53 AM 64.0 °F 46.9 °F 54% 29.98 in 10.0 mi ESE 6.9 mph - N/A   Clear
12:53 PM 66.9 °F 46.9 °F 49% 29.96 in 10.0 mi East 10.4 mph - N/A   Clear
1:53 PM 68.0 °F 45.0 °F 43% 29.93 in 10.0 mi Variable 6.9 mph - N/A   Clear
2:53 PM 70.0 °F 45.0 °F 41% 29.91 in 10.0 mi ESE 8.1 mph - N/A   Clear
3:53 PM 69.1 °F 43.0 °F 39% 29.89 in 10.0 mi Variable 3.5 mph - N/A   Clear
5:53 PM 66.0 °F 45.0 °F 47% 29.91 in 10.0 mi East 15.0 mph - N/A   Mostly Cloudy
6:53 PM 63.0 °F 45.0 °F 52% 29.94 in 10.0 mi East 10.4 mph - N/A   Clear
7:53 PM 61.0 °F 44.1 °F 54% 29.94 in 10.0 mi East 6.9 mph - N/A   Clear
8:53 PM 57.2 °F 42.8 °F 59% 29.95 in 10.0 mi East 5.8 mph - N/A   Clear
9:53 PM 54.0 °F 44.1 °F 69% 29.97 in 10.0 mi ENE 3.5 mph - N/A   Clear
10:53 PM 52.0 °F 44.1 °F 74% 29.96 in 10.0 mi ENE 4.6 mph - N/A   Partly Cloudy
11:53 PM 51.1 °F 43.0 °F 74% 29.96 in 10.0 mi NE 4.6 mph - N/A   Partly Cloudy